This is the latest recevied weather packets stored in our database for station/object N9ALD. If no packets are shown the sender has not sent any weather packets the latest 10 day(s).
| Time | Temp. | Humidity | Pressure | Rain* | Wind** | Luminosity | Snow |
|---|---|---|---|---|---|---|---|
| 1777560158 | 11.11° C | 62% | 1014.8 hPa | 0 mm | - | 536 W/m² | - |
| 1777559855 | 11.11° C | 61% | 1014.8 hPa | 0 mm | - | 523 W/m² | - |
| 1777559551 | 11.11° C | 62% | 1014.7 hPa | 0 mm | - | 510 W/m² | - |
| 1777559248 | 11.11° C | 63% | 1014.7 hPa | 0 mm | - | 497 W/m² | - |
| 1777558944 | 10.56° C | 61% | 1014.7 hPa | 0 mm | - | 486 W/m² | - |
| 1777558640 | 10.56° C | 63% | 1014.7 hPa | 0 mm | - | 470 W/m² | - |
| 1777558335 | 10.56° C | 66% | 1014.8 hPa | 0 mm | - | 456 W/m² | - |
| 1777558032 | 10° C | 67% | 1014.6 hPa | 0 mm | - | 446 W/m² | - |
| 1777557729 | 9.44° C | 68% | 1014.7 hPa | 0 mm | - | 432 W/m² | - |
| 1777557425 | 9.44° C | 70% | 1014.6 hPa | 0 mm | - | 415 W/m² | - |
| 1777557121 | 9.44° C | 69% | 1014.6 hPa | 0 mm | - | 402 W/m² | - |
| 1777556817 | 8.89° C | 71% | 1014.6 hPa | 0 mm | - | 387 W/m² | - |
| 1777556514 | 8.89° C | 70% | 1014.8 hPa | 0 mm | - | 371 W/m² | - |
| 1777556213 | 8.89° C | 72% | 1014.8 hPa | 0 mm | - | 357 W/m² | - |
| 1777555909 | 8.33° C | 73% | 1014.8 hPa | 0 mm | - | 338 W/m² | - |
| 1777555605 | 7.78° C | 72% | 1014.9 hPa | 0 mm | - | 326 W/m² | - |
| 1777555302 | 7.78° C | 74% | 1014.8 hPa | 0 mm | - | 310 W/m² | - |
| 1777554999 | 7.78° C | 76% | 1014.6 hPa | 0 mm | - | 294 W/m² | - |
| 1777554696 | 7.22° C | 77% | 1014.7 hPa | 0 mm | - | 282 W/m² | - |
| 1777554392 | 7.22° C | 76% | 1014.6 hPa | 0 mm | - | 118 W/m² | - |
| 1777554089 | 6.67° C | 76% | 1014.5 hPa | 0 mm | - | 103 W/m² | - |
| 1777553786 | 6.67° C | 76% | 1014.5 hPa | 0 mm | - | 49 W/m² | - |
| 1777553483 | 6.67° C | 76% | 1014.6 hPa | 0 mm | - | 48 W/m² | - |
| 1777553178 | 6.67° C | 78% | 1014.4 hPa | 0 mm | - | 48 W/m² | - |
| 1777552874 | 6.67° C | 78% | 1014.2 hPa | 0 mm | - | 46 W/m² | - |
* Rain latest hour (hover to see other rain measurements)
** Current wind speed in m/s (hover to see current wind gust speed)